Regional Weather Roundup
Issued by NWS

Home | Current Version | Previous Version | Graphics & Text | Print | Product List | Glossary On
Versions: 1 2 3 4 5 6 7 8 9 10 11 12 13 14 15 16 17 18 19 20 21 22 23 24 25 26 27 28 29 30 31 32 33 34 35 36 37 38 39 40 41 42 43 44 45 46 47 48 49 50
000
ASUS43 KLSX 271959
RWRMO

WEATHER SUMMARY FOR MISSOURI
NATIONAL WEATHER SERVICE SPRINGFIELD MO
300 PM CDT MON APR 27 2015

NOTE: "FAIR" INDICATES FEW OR NO CLOUDS BELOW 12,000 FEET WITH NO
       SIGNIFICANT WEATHER AND/OR OBSTRUCTIONS TO VISIBILITY.
       CURRENT SKY AND/OR WEATHER CONDITIONS ARE NOT AVAILABLE FOR
       CHILLICOTHE AND FARMINGTON.

MOZ001>031-035>038-043-044-053-054-272100-
...NORTHERN AND WESTERN MISSOURI...

CITY           SKY/WX    TMP DP  RH WIND       PRES   REMARKS
KANSAS CTY INT PTSUNNY   65  35  33 NE14G20   30.10F
KANSAS C DTWN  MOSUNNY   66  36  32 NE13G22   30.08F
LEE`S SUMMIT   MOSUNNY   66  36  32 NE15G22   30.08F
ST JOSEPH      MOSUNNY   67  34  29 NE18      30.11F
CHILLICOTHE      N/A     68  34  28 NE13      30.11F
KIRKSVILLE     SUNNY     66  37  34 N16       30.10F

$$
MOZ066>068-077>081-088>096-101>105-272100-
...SOUTHWEST MISSOURI...

CITY           SKY/WX    TMP DP  RH WIND       PRES   REMARKS
SPRINGFIELD    MOSUNNY   63  33  32 NE21G29   30.00F
JOPLIN         CLOUDY    62  35  36 E15G28    29.98F

$$
MOZ032>034-039>042-045>050-055>058-069>072-272100-
...CENTRAL MISSOURI...

CITY           SKY/WX    TMP DP  RH WIND       PRES   REMARKS
COLUMBIA       MOSUNNY   66  34  30 NE20G28   30.07F
JEFFERSON CITY MOSUNNY   66  33  29 E10G21    30.06F
SEDALIA        MOSUNNY   66  38  35 E13       30.09F
OSAGE BEACH    SUNNY     66  34  30 NE15G23   30.06S

$$
MOZ051-052-059>065-272100-
...EAST CENTRAL MISSOURI...

CITY           SKY/WX    TMP DP  RH WIND       PRES   REMARKS
ST LOUIS INTL  MOSUNNY   66  35  31 NE14G21   30.06F
SPIRIT OF STL  MOSUNNY   66  36  32 NE10G21   30.05F
ST CHARLES     SUNNY     65  38  36 N13G23    30.06F

$$
MOZ072>076-082>087-097>100-106>115-272100-
...SOUTH CENTRAL AND SOUTHEAST MISSOURI...

CITY           SKY/WX    TMP DP  RH WIND       PRES   REMARKS
CAPE GIRARDEAU SUNNY     65  38  36 N10G23    30.02F
FARMINGTON     SUNNY     63  37  39 NE13      30.08F
POPLAR BLUFF   SUNNY     66  39  37 NE13      30.01F
WEST PLAINS    MOSUNNY   64  32  30 NE13G23   30.01F

$$


USA.gov is the U.S. government's official web portal to all federal, state and local government web resources and services.